sat.trackr.live / text

‹ back to catalog

STARLINK-33956

NORAD 63927 · 2025-098B

PAYLOAD ACTIVE UNKNOWN

§ Identity

Operator
Country
US
Launch date
2025-05-13
Launch site
AFWTR
Launch vehicle
Mass (kg)
RCS (m²)

Purposes: comms

External: N2YO · Heavens-Above · Gunter

§ Orbital elements

Epoch: 2026-05-25T04:00:03.998880Z

Period
96.11 min
Inclination
70.0009°
Eccentricity
0.0003084
Mean motion
14.98332800 rev/d
Perigee alt
569.9 km
Apogee alt
574.2 km
Semi-major
6,950.2 km
B*
2.3910e-3
RAAN
81.4744°
Arg perigee
277.9871°
Mean anomaly
16.2418°
Rev number
575

§ Raw data

STARLINK-339561 63927U 25098B   26145.16671295  .00028555  00000+0  23910-2 0  99972 63927  70.0009  81.4744 0003084 277.9871  16.2418 14.98332800  5756

JSON: /api/v1/satellites/63927 · /tle

For live sub-satellite position, see the globe view (requires WebGL).

§ Visibility from observer

Set your observer location to see the next 7 days of passes ≥ 10°. The values pass through the URL so the page stays shareable.

No JS? Fill the form by hand. The geolocation button needs JavaScript.